Regional Weather Roundup
Issued by NWS

Home | Current Version | Previous Version | Text Only | Print | Product List | Glossary On
Versions: 1 2 3 4 5 6 7 8 9 10 11 12 13 14 15 16 17 18 19 20 21 22 23 24 25 26 27 28 29 30 31 32 33 34 35 36 37 38 39 40 41 42 43 44 45 46 47 48 49 50
013
ASUS43 KMPX 251501
RWRMN
WEATHER ROUNDUP FOR MINNESOTA
NATIONAL WEATHER SERVICE TWIN CITIES/CHANHASSEN MN
1000 AM CDT SAT MAR 25 2017


NOTE: "FAIR" INDICATES FEW OR NO CLOUDS BELOW 12,000 FEET WITH NO
SIGNIFICANT WEATHER AND/OR OBSTRUCTIONS TO VISIBILITY. N/A MEANS
CURRENT SKY AND/OR WEATHER CONDITIONS ARE NOT AVAILABLE.

MNZ060>063-068>070-251600-
   Twin Cities Metro

CITY           SKY/WX    TMP DP  RH WIND       PRES   REMARKS
TWIN CITIES    CLOUDY    38  30  73 E13       30.18S
ST PAUL        CLOUDY    38  32  79 E16       30.20R
CRYSTAL        CLOUDY    37  29  72 E10       30.18R
BLAINE         CLOUDY    37  34  87 E16       30.19R
LAKEVILLE      CLOUDY    36  34  93 E13       30.16S
EDEN PRAIRIE   CLOUDY    39  32  76 E14       30.16S
SOUTH ST PAUL  CLOUDY    38  32  77 NE9       30.17F
LAKE ELMO      CLOUDY    37  32  81 E10       30.19S
$$
MNZ001>005-007-008-013>017-022>024-027-028-251600-
   Northwest Minnesota

CITY           SKY/WX    TMP DP  RH WIND       PRES   REMARKS
BEMIDJI        CLOUDY    33  28  82 SE14G20   30.21S WCI  24
HALLOCK        MOSUNNY   36  32  87 S16       30.16R
ROSEAU         CLOUDY    37  30  75 SE14      30.19S
WARROAD        CLOUDY    36  30  80 SE10      30.21R
THIEF RVR FALL CLOUDY   N/A N/A N/A SE15      30.19F
CROOKSTON      CLOUDY    36  34  93 S13       30.18F
FOSSTON        CLOUDY    34  30  86 SE14      30.19S WCI  24
DETROIT LAKES  CLOUDY    34  30  86 SE21      30.18S WCI  22
MOORHEAD       CLOUDY    34  30  86 S8        30.20R WCI  27
PARK RAPIDS    CLOUDY    35  24  64 SE10G21   30.20S WCI  27
MAHNOMEN       CLOUDY    34  29  81 SE14      30.18S WCI  24
$$
MNZ006-009>011-018-025>026-251600-
   North Central Minnesota

CITY           SKY/WX    TMP DP  RH WIND       PRES   REMARKS
BAUDETTE       CLOUDY    34  30  85 SE10      30.22S WCI  26
FLAG ISLAND    CLOUDY    34  27  75 SE9       30.21R WCI  26
INTL FALLS     CLOUDY    35  27  72 SE8       30.26S WCI  29
WASKISH        CLOUDY    36  28  75 SE9G20    30.23S
BIG FORK       CLOUDY    34  27  75 SE9       30.25S WCI  26
LONGVILLE      CLOUDY    34  27  75 E12       30.23S WCI  25
GRAND RAPIDS   CLOUDY    32  26  78 SE12      30.27S WCI  23
CRANE LAKE     CLOUDY    34  27  75 SE3       30.31S
ORR            CLOUDY    34  25  69 CALM      30.25S
COOK           CLOUDY    32  25  74 E8        30.28S WCI  25
WALKER         CLOUDY    32  28  83 SE5       30.22S WCI  27
$$
MNZ012-019>021-037-251600-
   Northeast Minnesota

CITY           SKY/WX    TMP DP  RH WIND       PRES   REMARKS
DULUTH         CLOUDY    32  29  88 E16       30.25S WCI  21
ELY            CLOUDY    30  23  74 SE15      30.29S WCI  19
HIBBING        CLOUDY    31  24  75 E12       30.26F WCI  22
EVELETH        CLOUDY    32  24  71 E8G16     30.28S WCI  25
DULUTH HARBOR  CLOUDY    36  32  87 E20       30.29F
TWO HARBORS    CLOUDY    36  30  80 E16G24    30.27S
SILVER BAY     CLOUDY    32  28  86 E15       30.29S WCI  22
GRAND MARAIS     N/A     32  25  75 NE14G22   30.37F WCI  22
G MARAIS ARPRT CLOUDY    25  18  74 NE10      30.32S WCI  15
$$
MNZ029>031-032-039>041-046>048-054>057-064-251600-
   West Central Minnesota

CITY           SKY/WX    TMP DP  RH WIND       PRES   REMARKS
FERGUS FALLS   CLOUDY    34  28  80 SE12      30.23S WCI  25
WHEATON        CLOUDY    34  30  86 SE12      30.20F WCI  25
MORRIS         CLOUDY    34  30  86 SE15      30.17F WCI  24
ALEXANDRIA     CLOUDY    32  29  88 E14       30.19S WCI  22
ELBOW LAKE     CLOUDY    32  30  90 SE12      30.19S WCI  23
WADENA         CLOUDY    34  27  75 E15G23    30.19S WCI  24
GLENWOOD       CLOUDY    34  30  86 E15       30.18F WCI  24
APPLETON       CLOUDY    36  30  80 E9        30.18S
BENSON         CLOUDY    37  28  70 SE8       30.20F
ORTONVILLE     CLOUDY    34  30  86 SE7       30.17F WCI  28
MADISON        CLOUDY    37  36  93 E10       30.17S
WILLMAR        CLOUDY    36  34  93 E10       30.19S
$$
MNZ033>034-036-042>043-049>051-058-059-251600-
   Central Minnesota

CITY           SKY/WX    TMP DP  RH WIND       PRES   REMARKS
ST CLOUD       CLOUDY    35  30  82 NE13      30.20S WCI  26
SAUK CENTRE    CLOUDY    32  29  88 E13       30.19F WCI  23
PAYNESVILLE      N/A     35  31  86 E10       30.19S WCI  27
AITKIN         CLOUDY    37  27  65 E8        30.22S
PINE RIVER     CLOUDY    34  28  80 E15G22    30.25S WCI  24
BRAINERD       CLOUDY    35  28  75 E9        30.22F WCI  28
STAPLES        CLOUDY    34  27  75 SE13      30.20F WCI  25
LONG PRAIRIE   CLOUDY    32  28  86 NE12G18   30.20S WCI  23
LITTLE FALLS   CLOUDY    34  30  86 NE5       30.21F WCI  30
LITCHFIELD     CLOUDY    37  34  87 E12       30.18S
BUFFALO        CLOUDY    36  31  82 NE10      30.20R
MAPLE LAKE     CLOUDY    37  33  84 NE10      30.20R
HUTCHINSON     CLOUDY    37  33  87 E10       30.18S
$$
MNZ037-044-045-052-053-251600-
   East Central Minnesota

CITY           SKY/WX    TMP DP  RH WIND       PRES   REMARKS
PRINCETON      CLOUDY    36  30  80 E7        30.21S
MORA           CLOUDY    34  28  80 NE7       30.24S WCI  28
CAMBRIDGE      CLOUDY    37  28  70 NE7       30.20R
RUSH CITY      CLOUDY    36  31  82 NE8       30.22R
MOOSE LAKE     CLOUDY    34  28  80 E9        30.23S WCI  26
CLOQUET        CLOUDY    34  27  75 E15G22    30.25S WCI  24
MCGREGOR       CLOUDY    34  30  86 E14       30.24S WCI  24
$$
MNZ071>073-080-081-089-090-097-098-251600-
   Southwest Minnesota

CITY           SKY/WX    TMP DP  RH WIND       PRES   REMARKS
MONTEVIDEO     CLOUDY    36  34  93 E10       30.19S
GRANITE FALLS  CLOUDY    37  34  87 NE9       30.18F
CANBY          CLOUDY    37  34  90 CALM      30.17S
MARSHALL       CLOUDY    35  34  96 E13       30.15F FOG     WCI  26
REDWOOD FALLS  CLOUDY    37  32  82 NE6       30.15F
OLIVIA         CLOUDY    36  32  87 E9        30.17R
PIPESTONE      CLOUDY    36  32  87 E10       30.09F FOG
WINDOM         CLOUDY    36  36 100 NE12G18   30.10F FOG
WORTHINGTON    CLOUDY    35  34  96 NE17      30.08F FOG     WCI  25
JACKSON        CLOUDY    36  34  93 NE16G23   30.09S FOG
TRACY          CLOUDY    36  36 100 NE12      30.13F FOG
SLAYTON        CLOUDY    33  33  99 NE9G17    30.11F FOG     WCI  26
$$
MNZ065>067-074>077-082>085-091>093-251600-
   South Central Minnesota

CITY           SKY/WX    TMP DP  RH WIND       PRES   REMARKS
MANKATO        CLOUDY    37  34  89 NE15      30.13F
NEW ULM        CLOUDY    37  34  87 E14       30.14S
ST JAMES       CLOUDY    37  36  93 NE12G18   30.13S
FAIRMONT       CLOUDY    37  34  89 NE18      30.09F
GLENCOE        CLOUDY    38  35  89 NE8       30.16R
FARIBAULT      CLOUDY    37  34  87 NE13G21   30.14S
OWATONNA       CLOUDY    37  34  87 NE13      30.11F
WASECA         CLOUDY    36  32  87 NE14G25   30.12F
ALBERT LEA     CLOUDY    36  36 100 NE16      30.08S FOG
$$
MNZ078>079-086>088-094>096-251600-
   Southeast Minnesota

CITY           SKY/WX    TMP DP  RH WIND       PRES   REMARKS
ROCHESTER      CLOUDY    35  33  92 NE17      30.10S WCI  25
RED WING       CLOUDY    37  30  75 CALM      30.17S
STANTON        CLOUDY    38  33  83 NE14      30.15S
DODGE CENTER   CLOUDY    37  34  87 NE12      30.10F
WINONA         CLOUDY    37  32  81 E7        30.15F
AUSTIN         CLOUDY    37  34  87 NE12      30.08S
PRESTON        CLOUDY    35  32  90 NE13      30.09R WCI  26
$$
ABBREVIATIONS USED IN REMARKS
   TC - TEMPERATURES IN CELSIUS
  WCI - WIND CHILL INDEX
   HX - HEAT INDEX
  VSB - VISIBILITY
$$




USA.gov is the U.S. government's official web portal to all federal, state and local government web resources and services.